Location: Kailua
(21.4020°N, 157.7390°W)
Time: 21:01:59
(UTC-10:00)

Cosmos 2221 Rocket - Visible Passes

Search period start: 23 October 2014 00:00
Search period end: 02 November 2014 00:00
Orbit: 621 x 651 km, 82.5° (Epoch: 24 October)

Date Brightness Start Highest point End Pass type
(mag) Time Alt. Az. Time Alt. Az. Time Alt. Az.
23 Oct 5.2 05:30:38 10° NNE 05:34:44 38° E 05:38:49 10° SSE visible
24 Oct 3.5 05:52:55 10° N 05:57:19 81° W 06:01:43 10° S visible
24 Oct 4.0 18:15:50 10° S 18:20:19 73° W 18:24:47 10° N visible
25 Oct 6.8 04:39:51 10° NE 04:41:40 12° E 04:43:28 10° ESE visible
25 Oct 5.9 18:39:04 10° SW 18:42:56 28° W 18:46:48 10° NNW visible
26 Oct 5.5 05:00:29 10° NNE 05:04:22 30° E 05:08:15 10° SE visible
26 Oct 6.9 19:04:08 10° W 19:05:39 12° W 19:07:11 10° WNW visible
27 Oct 3.7 05:22:34 10° N 05:26:58 80° E 05:31:23 10° S visible
28 Oct 4.0 05:45:23 10° NNW 05:49:29 38° W 05:53:35 10° SSW visible
29 Oct 5.8 04:30:24 10° NNE 04:33:59 24° E 04:37:35 10° SE visible
29 Oct 6.7 18:32:48 10° WSW 18:35:16 15° W 18:37:43 10° NW visible
30 Oct 4.0 04:52:15 10° N 04:56:37 62° E 05:01:00 10° SSE visible
31 Oct 3.7 05:16:24 21° NNW 05:19:09 49° W 05:23:25 10° SSW visible
01 Nov 6.0 04:03:21 20° ENE 04:03:36 20° E 04:06:49 10° SE visible
01 Nov 4.8 05:40:59 19° W 05:41:35 20° W 05:44:47 10° SW visible
